QPF
0.09 0.08 0.07 0.07 0.07 0.08 0.08 0.08 0.08 0.08 0.08 0.06 0.06 0.05 0.04 0.03 0.03 0.04 0.03 0.05 0.08 0.10 0.15 0.19 0.20 0.16 0.11 0.06 0.04 0.02 0.01 0.01 0.01 0.00 0.00 0.01 0.01 0.00 0.00 0.00 0.00 0.00 0.00
0.08 0.08 0.08 0.07 0.07 0.06 0.05 0.04 0.04 0.05 0.05 0.06 0.06 0.04 0.04 0.05 0.05 0.05 0.04 0.05 0.10 0.12 0.16 0.20 0.21 0.19 0.18 0.15 0.09 0.05 0.02 0.01 0.01 0.00 0.00 0.00 0.01 0.00 0.00 0.00 0.00 0.00 0.00
0.11 0.09 0.07 0.05 0.04 0.03 0.03 0.03 0.03 0.03 0.04 0.04 0.04 0.05 0.05 0.05 0.04 0.04 0.04 0.05 0.06 0.09 0.15 0.19 0.18 0.20 0.23 0.24 0.19 0.11 0.06 0.04 0.03 0.01 0.00 0.00 0.00 0.00 0.00 0.00 0.00 0.00 0.00
0.06 0.05 0.03 0.02 0.01 0.01 0.01 0.02 0.02 0.02 0.02 0.02 0.03 0.03 0.04 0.04 0.04 0.03 0.03 0.03 0.04 0.05 0.09 0.13 0.14 0.18 0.22 0.28 0.29 0.23 0.15 0.10 0.07 0.04 0.01 0.01 0.00 0.00 0.00 0.00 0.00 0.00 0.00
0.05 0.03 0.01 0.01 0.01 0.01 0.01 0.01 0.01 0.01 0.01 0.01 0.01 0.01 0.01 0.02 0.02 0.03 0.02 0.02 0.02 0.04 0.05 0.07 0.12 0.16 0.20 0.25 0.31 0.34 0.28 0.17 0.11 0.08 0.05 0.03 0.01 0.01 0.01 0.00 0.00 0.00 0.00
0.01 0.01 0.01 0.01 0.00 0.01 0.00 0.00 0.00 0.00 0.00 0.01 0.01 0.01 0.01 0.01 0.02 0.02 0.02 0.02 0.02 0.03 0.05 0.06 0.08 0.10 0.17 0.23 0.27 0.31 0.33 0.26 0.19 0.14 0.09 0.05 0.03 0.03 0.02 0.01 0.01 0.00 0.00
0.01 0.01 0.01 0.01 0.00 0.00 0.00 0.00 0.00 0.00 0.00 0.00 0.00 0.00 0.01 0.01 0.01 0.02 0.02 0.02 0.03 0.04 0.05 0.06 0.07 0.08 0.09 0.13 0.17 0.22 0.27 0.28 0.26 0.23 0.17 0.12 0.07 0.05 0.04 0.03 0.02 0.01 0.00
0.01 0.01 0.00 0.00 0.00 0.00 0.00 0.00 0.00 0.00 0.00 0.00 0.00 0.00 0.00 0.00 0.00 0.01 0.01 0.02 0.02 0.03 0.03 0.04 0.04 0.04 0.05 0.07 0.08 0.12 0.20 0.25 0.28 0.29 0.25 0.21 0.16 0.11 0.07 0.05 0.03 0.03 0.01
0.00 0.00 0.01 0.00 0.00 0.00 0.00 0.00 0.00 0.00 0.00 0.00 0.00 0.00 0.00 0.00 0.00 0.00 0.00 0.01 0.01 0.01 0.01 0.02 0.02 0.02 0.03 0.04 0.05 0.07 0.12 0.16 0.23 0.30 0.32 0.28 0.22 0.17 0.11 0.08 0.05 0.03 0.02
0.00 0.01 0.01 0.01 0.00 0.00 0.00 0.00 0.00 0.00 0.00 0.00 0.00 0.00 0.00 0.00 0.00 0.00 0.00 0.00 0.00 0.01 0.01 0.01 0.01 0.02 0.02 0.03 0.03 0.04 0.06 0.09 0.15 0.22 0.28 0.30 0.28 0.22 0.17 0.12 0.10 0.07 0.04
0.01 0.00 0.01 0.00 0.00 0.00 0.00 0.00 0.00 0.00 0.00 0.00 0.00 0.00 0.00 0.00 0.00 0.00 0.00 0.00 0.00 0.01 0.01 0.01 0.01 0.01 0.01 0.01 0.02 0.02 0.03 0.06 0.10 0.14 0.18 0.22 0.26 0.26 0.23 0.19 0.16 0.13 0.10
0.00 0.00 0.00 0.00 0.00 0.00 0.00 0.00 0.00 0.00 0.00 0.00 0.00 0.00 0.00 0.00 0.00 0.00 0.00 0.00 0.00 0.00 0.00 0.01 0.01 0.01 0.01 0.01 0.01 0.01 0.02 0.04 0.05 0.07 0.09 0.13 0.17 0.20 0.22 0.21 0.20 0.19 0.17
0.00 0.00 0.00 0.00 0.00 0.00 0.00 0.00 0.00 0.00 0.00 0.00 0.00 0.00 0.00 0.00 0.00 0.00 0.00 0.00 0.00 0.00 0.00 0.00 0.00 0.00 0.01 0.01 0.01 0.01 0.02 0.03 0.05 0.05 0.04 0.05 0.08 0.12 0.15 0.17 0.19 0.20 0.19
0.00 0.00 0.00 0.00 0.00 0.00 0.00 0.00 0.00 0.00 0.00 0.00 0.00 0.00 0.00 0.00 0.00 0.00 0.00 0.00 0.00 0.00 0.00 0.00 0.00 0.00 0.01 0.01 0.01 0.01 0.01 0.02 0.03 0.03 0.03 0.03 0.03 0.06 0.09 0.10 0.12 0.15 0.17
0.00 0.00 0.00 0.00 0.00 0.00 0.00 0.00 0.00 0.00 0.00 0.00 0.00 0.00 0.00 0.00 0.00 0.00 0.00 0.00 0.00 0.00 0.00 0.00 0.00 0.00 0.00 0.00 0.00 0.00 0.00 0.01 0.01 0.02 0.02 0.03 0.03 0.03 0.05 0.08 0.09 0.10 0.10
0.00 0.00 0.00 0.00 0.00 0.00 0.00 0.00 0.00 0.00 0.00 0.00 0.00 0.00 0.00 0.00 0.00 0.00 0.00 0.00 0.00 0.00 0.00 0.00 0.00 0.00 0.00 0.00 0.00 0.00 0.00 0.01 0.01 0.01 0.01 0.01 0.02 0.02 0.03 0.04 0.06 0.07 0.08
0.00 0.00 0.00 0.00 0.00 0.00 0.00 0.00 0.00 0.00 0.00 0.00 0.00 0.00 0.00 0.00 0.00 0.00 0.00 0.00 0.00 0.00 0.00 0.00 0.00 0.00 0.00 0.00 0.00 0.00 0.00 0.00 0.00 0.01 0.01 0.01 0.01 0.02 0.02 0.02 0.03 0.04 0.06
0.00 0.00 0.00 0.00 0.00 0.00 0.00 0.00 0.00 0.00 0.00 0.00 0.00 0.00 0.00 0.00 0.00 0.00 0.00 0.00 0.00 0.00 0.00 0.00 0.00 0.00 0.00 0.00 0.00 0.00 0.00 0.00 0.00 0.00 0.01 0.01 0.00 0.01 0.01 0.02 0.02 0.03 0.04
0.00 0.00 0.00 0.00 0.00 0.00 0.00 0.00 0.00 0.00 0.00 0.00 0.00 0.00 0.00 0.00 0.00 0.00 0.00 0.00 0.00 0.00 0.00 0.00 0.00 0.00 0.00 0.00 0.00 0.00 0.00 0.00 0.01 0.01 0.01 0.01 0.01 0.00 0.01 0.01 0.03 0.03 0.03
0.00 0.00 0.00 0.00 0.00 0.00 0.00 0.00 0.00 0.00 0.00 0.00 0.00 0.00 0.00 0.00 0.00 0.00 0.00 0.00 0.00 0.00 0.00 0.00 0.00 0.00 0.00 0.00 0.00 0.00 0.00 0.00 0.00 0.01 0.01 0.01 0.01 0.01 0.01 0.01 0.02 0.04 0.04
0.00 0.00 0.00 0.00 0.00 0.00 0.00 0.00 0.00 0.00 0.00 0.00 0.00 0.00 0.00 0.00 0.00 0.00 0.00 0.00 0.00 0.00 0.00 0.00 0.00 0.00 0.00 0.00 0.00 0.00 0.00 0.00 0.00 0.00 0.01 0.00 0.00 0.00 0.01 0.01 0.01 0.02 0.04
0.00 0.00 0.00 0.00 0.00 0.00 0.00 0.00 0.00 0.00 0.00 0.00 0.00 0.00 0.00 0.00 0.00 0.00 0.00 0.00 0.00 0.00 0.00 0.00 0.00 0.00 0.00 0.00 0.00 0.00 0.00 0.00 0.00 0.00 0.00 0.00 0.00 0.00 0.00 0.01 0.01 0.01 0.02
0.00 0.00 0.00 0.00 0.00 0.00 0.00 0.00 0.00 0.00 0.00 0.00 0.00 0.00 0.00 0.00 0.00 0.00 0.00 0.00 0.00 0.00 0.00 0.00 0.00 0.00 0.00 0.00 0.00 0.00 0.00 0.00 0.00 0.00 0.00 0.00 0.00 0.00 0.00 0.01 0.01 0.01 0.02
0.00 0.00 0.00 0.00 0.00 0.00 0.00 0.00 0.00 0.00 0.00 0.00 0.00 0.00 0.00 0.00 0.00 0.00 0.00 0.00 0.00 0.00 0.00 0.00 0.00 0.00 0.00 0.00 0.00 0.00 0.00 0.00 0.00 0.00 0.00 0.00 0.00 0.00 0.00 0.00 0.01 0.02 0.03
0.00 0.00 0.00 0.01 0.01 0.01 0.01 0.01 0.01 0.00 0.00 0.00 0.00 0.00 0.00 0.00 0.00 0.00 0.00 0.00 0.00 0.00 0.00 0.00 0.00 0.00 0.00 0.00 0.00 0.00 0.00 0.00 0.00 0.00 0.00 0.00 0.00 0.01 0.00 0.00 0.01 0.02 0.04
0.01 0.01 0.01 0.01 0.01 0.00 0.00 0.00 0.00 0.00 0.00 0.00 0.00 0.00 0.00 0.00 0.00 0.00 0.00 0.00 0.00 0.00 0.00 0.00 0.00 0.00 0.00 0.00 0.00 0.00 0.00 0.00 0.00 0.00 0.00 0.00 0.01 0.01 0.01 0.01 0.01 0.01 0.02
MSLP
1018.10 1018.22 1018.29 1018.34 1018.39 1018.46 1018.58 1018.72 1018.86 1018.99 1019.06 1019.06 1018.99 1018.85 1018.68 1018.53 1018.41 1018.37 1018.41 1018.53 1018.71 1018.91 1019.12 1019.31 1019.48 1019.62 1019.76 1019.90 1020.06 1020.25 1020.48 1020.75 1021.04 1021.34 1021.65 1021.96 1022.26 1022.56 1022.85 1023.14 1023.42 1023.68 1023.94
1018.11 1018.26 1018.37 1018.44 1018.52 1018.60 1018.71 1018.84 1018.97 1019.09 1019.16 1019.17 1019.11 1018.99 1018.84 1018.69 1018.57 1018.50 1018.50 1018.56 1018.68 1018.83 1018.99 1019.15 1019.29 1019.42 1019.54 1019.67 1019.82 1020.00 1020.23 1020.49 1020.79 1021.12 1021.46 1021.81 1022.15 1022.48 1022.80 1023.11 1023.39 1023.66 1023.91
1018.09 1018.27 1018.42 1018.54 1018.65 1018.76 1018.88 1019.00 1019.13 1019.23 1019.30 1019.33 1019.29 1019.21 1019.08 1018.94 1018.81 1018.72 1018.66 1018.65 1018.69 1018.76 1018.84 1018.93 1019.02 1019.11 1019.21 1019.32 1019.46 1019.64 1019.86 1020.14 1020.46 1020.81 1021.18 1021.56 1021.94 1022.31 1022.66 1022.98 1023.29 1023.56 1023.82
1018.03 1018.26 1018.46 1018.64 1018.79 1018.93 1019.06 1019.18 1019.30 1019.40 1019.47 1019.51 1019.50 1019.45 1019.37 1019.25 1019.12 1019.00 1018.88 1018.80 1018.73 1018.69 1018.68 1018.67 1018.68 1018.71 1018.77 1018.85 1018.98 1019.16 1019.39 1019.67 1020.01 1020.38 1020.78 1021.19 1021.60 1022.00 1022.38 1022.74 1023.06 1023.37 1023.65
1017.97 1018.23 1018.48 1018.71 1018.91 1019.08 1019.22 1019.35 1019.46 1019.55 1019.63 1019.68 1019.71 1019.70 1019.65 1019.56 1019.44 1019.30 1019.13 1018.96 1018.79 1018.63 1018.49 1018.37 1018.29 1018.24 1018.24 1018.29 1018.40 1018.57 1018.80 1019.10 1019.45 1019.84 1020.26 1020.70 1021.13 1021.56 1021.97 1022.35 1022.71 1023.05 1023.37
1017.93 1018.21 1018.49 1018.76 1018.99 1019.19 1019.34 1019.47 1019.57 1019.65 1019.73 1019.80 1019.86 1019.90 1019.90 1019.85 1019.75 1019.59 1019.38 1019.13 1018.85 1018.57 1018.30 1018.06 1017.87 1017.74 1017.67 1017.68 1017.76 1017.92 1018.16 1018.46 1018.82 1019.22 1019.65 1020.10 1020.55 1021.00 1021.43 1021.84 1022.23 1022.61 1022.97
1017.94 1018.21 1018.50 1018.79 1019.04 1019.25 1019.41 1019.52 1019.61 1019.69 1019.77 1019.87 1019.96 1020.04 1020.09 1020.09 1020.02 1019.86 1019.61 1019.30 1018.93 1018.54 1018.15 1017.79 1017.49 1017.26 1017.13 1017.09 1017.14 1017.28 1017.51 1017.80 1018.16 1018.57 1019.00 1019.45 1019.90 1020.35 1020.80 1021.23 1021.66 1022.07 1022.48
1018.01 1018.26 1018.54 1018.82 1019.07 1019.28 1019.43 1019.54 1019.61 1019.68 1019.77 1019.88 1020.00 1020.13 1020.23 1020.28 1020.24 1020.09 1019.83 1019.47 1019.04 1018.55 1018.06 1017.60 1017.20 1016.89 1016.68 1016.58 1016.60 1016.72 1016.92 1017.21 1017.55 1017.94 1018.36 1018.80 1019.24 1019.69 1020.14 1020.58 1021.02 1021.46 1021.90
1018.16 1018.36 1018.61 1018.87 1019.10 1019.29 1019.43 1019.52 1019.58 1019.65 1019.73 1019.86 1020.01 1020.18 1020.33 1020.42 1020.42 1020.29 1020.03 1019.65 1019.17 1018.63 1018.06 1017.52 1017.04 1016.66 1016.39 1016.24 1016.21 1016.29 1016.47 1016.72 1017.04 1017.41 1017.80 1018.21 1018.64 1019.06 1019.49 1019.92 1020.36 1020.81 1021.27
1018.36 1018.51 1018.72 1018.94 1019.15 1019.32 1019.43 1019.51 1019.56 1019.62 1019.70 1019.83 1020.01 1020.20 1020.38 1020.51 1020.55 1020.45 1020.20 1019.82 1019.33 1018.75 1018.15 1017.56 1017.03 1016.59 1016.27 1016.07 1016.00 1016.04 1016.18 1016.39 1016.68 1017.01 1017.36 1017.74 1018.13 1018.52 1018.92 1019.32 1019.74 1020.17 1020.61
1018.58 1018.69 1018.85 1019.04 1019.21 1019.36 1019.46 1019.52 1019.56 1019.60 1019.69 1019.82 1019.99 1020.20 1020.40 1020.55 1020.61 1020.54 1020.32 1019.96 1019.48 1018.91 1018.29 1017.69 1017.14 1016.68 1016.32 1016.09 1015.97 1015.97 1016.06 1016.23 1016.47 1016.75 1017.06 1017.40 1017.74 1018.09 1018.44 1018.80 1019.17 1019.55 1019.96
1018.78 1018.85 1018.98 1019.13 1019.28 1019.41 1019.49 1019.54 1019.57 1019.61 1019.68 1019.79 1019.96 1020.16 1020.36 1020.52 1020.59 1020.54 1020.35 1020.02 1019.57 1019.04 1018.46 1017.87 1017.33 1016.87 1016.50 1016.24 1016.09 1016.04 1016.09 1016.21 1016.39 1016.62 1016.89 1017.17 1017.46 1017.75 1018.05 1018.35 1018.66 1018.98 1019.33
1018.91 1018.97 1019.07 1019.21 1019.34 1019.45 1019.53 1019.56 1019.58 1019.60 1019.65 1019.75 1019.89 1020.06 1020.23 1020.38 1020.45 1020.41 1020.25 1019.97 1019.58 1019.10 1018.58 1018.05 1017.55 1017.11 1016.75 1016.48 1016.30 1016.22 1016.21 1016.28 1016.41 1016.58 1016.79 1017.02 1017.26 1017.50 1017.74 1017.97 1018.21 1018.46 1018.73
1018.95 1019.01 1019.11 1019.24 1019.36 1019.46 1019.53 1019.56 1019.56 1019.56 1019.58 1019.64 1019.74 1019.87 1020.00 1020.12 1020.18 1020.15 1020.02 1019.78 1019.46 1019.06 1018.61 1018.16 1017.73 1017.33 1017.00 1016.73 1016.54 1016.42 1016.37 1016.38 1016.45 1016.57 1016.72 1016.90 1017.08 1017.27 1017.45 1017.62 1017.79 1017.96 1018.15
1018.89 1018.96 1019.07 1019.20 1019.33 1019.42 1019.48 1019.49 1019.48 1019.45 1019.44 1019.46 1019.51 1019.58 1019.67 1019.75 1019.78 1019.75 1019.65 1019.46 1019.21 1018.89 1018.54 1018.18 1017.82 1017.49 1017.20 1016.95 1016.75 1016.60 1016.51 1016.47 1016.48 1016.54 1016.63 1016.75 1016.89 1017.02 1017.15 1017.26 1017.37 1017.47 1017.59
1018.74 1018.84 1018.97 1019.10 1019.22 1019.31 1019.36 1019.36 1019.33 1019.28 1019.23 1019.20 1019.20 1019.22 1019.26 1019.29 1019.30 1019.26 1019.18 1019.04 1018.85 1018.62 1018.36 1018.09 1017.82 1017.56 1017.31 1017.08 1016.88 1016.71 1016.58 1016.48 1016.44 1016.44 1016.48 1016.54 1016.63 1016.71 1016.79 1016.86 1016.91 1016.95 1017.01
1018.54 1018.66 1018.80 1018.94 1019.06 1019.14 1019.18 1019.16 1019.11 1019.03 1018.95 1018.88 1018.83 1018.81 1018.80 1018.79 1018.77 1018.73 1018.66 1018.56 1018.42 1018.27 1018.09 1017.91 1017.71 1017.52 1017.31 1017.11 1016.91 1016.72 1016.55 1016.41 1016.30 1016.24 1016.22 1016.24 1016.27 1016.31 1016.35 1016.38 1016.39 1016.39 1016.40
1018.30 1018.44 1018.60 1018.74 1018.85 1018.92 1018.94 1018.91 1018.84 1018.74 1018.64 1018.54 1018.45 1018.39 1018.34 1018.30 1018.26 1018.21 1018.14 1018.07 1017.98 1017.88 1017.77 1017.65 1017.52 1017.37 1017.21 1017.03 1016.83 1016.62 1016.42 1016.23 1016.08 1015.96 1015.88 1015.84 1015.83 1015.83 1015.83 1015.82 1015.80 1015.78 1015.75
1018.05 1018.21 1018.37 1018.51 1018.62 1018.67 1018.67 1018.63 1018.54 1018.42 1018.30 1018.18 1018.07 1017.98 1017.91 1017.84 1017.78 1017.72 1017.66 1017.60 1017.53 1017.47 1017.40 1017.33 1017.25 1017.14 1017.01 1016.84 1016.65 1016.43 1016.21 1015.98 1015.78 1015.61 1015.47 1015.38 1015.32 1015.27 1015.24 1015.20 1015.16 1015.11 1015.07
1017.79 1017.96 1018.13 1018.26 1018.35 1018.39 1018.37 1018.31 1018.20 1018.08 1017.94 1017.81 1017.70 1017.59 1017.51 1017.43 1017.36 1017.28 1017.22 1017.15 1017.10 1017.05 1017.00 1016.96 1016.90 1016.83 1016.72 1016.57 1016.38 1016.16 1015.92 1015.67 1015.43 1015.22 1015.04 1014.89 1014.78 1014.69 1014.62 1014.56 1014.50 1014.43 1014.38
1017.51 1017.70 1017.86 1017.98 1018.05 1018.07 1018.03 1017.95 1017.83 1017.69 1017.55 1017.42 1017.30 1017.20 1017.11 1017.02 1016.94 1016.86 1016.78 1016.71 1016.65 1016.60 1016.56 1016.53 1016.49 1016.43 1016.34 1016.21 1016.04 1015.83 1015.59 1015.33 1015.07 1014.82 1014.60 1014.41 1014.26 1014.13 1014.03 1013.94 1013.85 1013.77 1013.70
1017.21 1017.39 1017.55 1017.66 1017.71 1017.70 1017.64 1017.53 1017.39 1017.24 1017.10 1016.97 1016.85 1016.75 1016.66 1016.58 1016.49 1016.40 1016.32 1016.23 1016.16 1016.10 1016.06 1016.02 1015.99 1015.95 1015.88 1015.78 1015.63 1015.44 1015.22 1014.97 1014.70 1014.45 1014.20 1013.99 1013.80 1013.63 1013.49 1013.37 1013.26 1013.17 1013.09
1016.86 1017.04 1017.19 1017.27 1017.30 1017.26 1017.17 1017.03 1016.87 1016.71 1016.56 1016.43 1016.31 1016.22 1016.14 1016.06 1015.97 1015.88 1015.78 1015.69 1015.60 1015.53 1015.48 1015.45 1015.42 1015.40 1015.35 1015.28 1015.17 1015.02 1014.83 1014.60 1014.36 1014.11 1013.86 1013.62 1013.41 1013.22 1013.05 1012.90 1012.77 1012.65 1012.56
1016.45 1016.63 1016.76 1016.82 1016.81 1016.73 1016.60 1016.44 1016.25 1016.07 1015.91 1015.78 1015.67 1015.58 1015.51 1015.43 1015.35 1015.26 1015.16 1015.06 1014.97 1014.89 1014.84 1014.80 1014.79 1014.78 1014.77 1014.73 1014.67 1014.57 1014.42 1014.24 1014.03 1013.80 1013.56 1013.33 1013.11 1012.90 1012.70 1012.53 1012.37 1012.24 1012.12
1016.00 1016.16 1016.26 1016.28 1016.23 1016.12 1015.95 1015.75 1015.54 1015.35 1015.18 1015.04 1014.94 1014.86 1014.79 1014.73 1014.66 1014.57 1014.48 1014.38 1014.28 1014.20 1014.15 1014.12 1014.12 1014.13 1014.15 1014.15 1014.14 1014.08 1013.99 1013.86 1013.69 1013.50 1013.29 1013.07 1012.84 1012.63 1012.42 1012.23 1012.06 1011.90 1011.78
1015.50 1015.63 1015.69 1015.68 1015.58 1015.43 1015.22 1014.99 1014.76 1014.56 1014.38 1014.25 1014.16 1014.10 1014.05 1014.00 1013.94 1013.87 1013.78 1013.68 1013.59 1013.52 1013.46 1013.44 1013.45 1013.48 1013.52 1013.56 1013.58 1013.57 1013.53 1013.45 1013.33 1013.17 1012.99 1012.79 1012.58 1012.37 1012.16 1011.96 1011.78 1011.62 1011.48
Thickness
5732 5731 5729 5727 5726 5724 5722 5722 5720 5720 5719 5719 5719 5720 5720 5720 5720 5720 5721 5722 5723 5723 5722 5722 5722 5721 5720 5719 5719 5719 5718 5718 5718 5717 5716 5716 5715 5714 5713 5712 5711 5711 5710
5729 5728 5727 5725 5723 5721 5720 5719 5718 5717 5716 5716 5716 5716 5717 5717 5718 5718 5718 5719 5720 5720 5720 5720 5720 5719 5719 5718 5717 5717 5717 5717 5716 5716 5715 5715 5714 5713 5712 5711 5710 5710 5709
5726 5725 5723 5721 5720 5719 5717 5716 5715 5714 5713 5713 5713 5713 5714 5714 5715 5716 5716 5716 5717 5718 5719 5718 5718 5718 5718 5717 5716 5716 5715 5715 5715 5715 5714 5714 5713 5712 5711 5710 5710 5709 5708
5724 5722 5720 5718 5717 5716 5714 5713 5712 5710 5709 5709 5709 5710 5710 5711 5712 5713 5713 5714 5715 5716 5717 5717 5717 5716 5716 5716 5715 5715 5714 5714 5714 5714 5713 5713 5712 5711 5710 5710 5709 5708 5708
5721 5719 5717 5715 5714 5712 5711 5710 5707 5706 5705 5705 5705 5706 5706 5707 5708 5709 5710 5711 5712 5713 5714 5715 5715 5715 5715 5714 5714 5714 5713 5712 5712 5712 5712 5712 5711 5711 5710 5709 5708 5707 5707
5718 5716 5713 5712 5710 5709 5707 5705 5703 5702 5701 5700 5701 5702 5702 5704 5705 5706 5706 5708 5709 5710 5711 5711 5712 5713 5713 5713 5712 5712 5711 5711 5711 5711 5711 5710 5710 5710 5709 5708 5707 5707 5706
5715 5713 5711 5708 5707 5705 5703 5701 5699 5698 5696 5696 5695 5695 5697 5699 5700 5701 5702 5703 5704 5706 5707 5707 5708 5709 5710 5711 5711 5711 5710 5710 5710 5710 5709 5709 5709 5709 5708 5708 5707 5706 5706
5713 5711 5709 5706 5703 5701 5699 5697 5696 5693 5692 5691 5689 5686 5685 5688 5692 5696 5696 5697 5698 5700 5701 5702 5703 5705 5706 5707 5709 5709 5709 5709 5709 5709 5708 5708 5707 5707 5707 5707 5706 5706 5706
5712 5709 5706 5704 5701 5698 5695 5693 5692 5689 5686 5685 5684 5681 5677 5676 5679 5686 5688 5689 5691 5693 5694 5696 5698 5699 5701 5703 5704 5706 5706 5707 5707 5707 5707 5707 5706 5706 5706 5706 5706 5706 5705
5709 5707 5704 5701 5699 5695 5693 5690 5688 5686 5683 5680 5678 5677 5676 5674 5671 5673 5678 5681 5683 5685 5687 5689 5690 5693 5695 5697 5699 5701 5702 5703 5704 5705 5705 5705 5706 5706 5705 5705 5705 5705 5705
5706 5705 5702 5699 5696 5693 5690 5687 5685 5682 5679 5676 5673 5672 5670 5668 5666 5664 5665 5669 5673 5676 5679 5681 5683 5685 5688 5690 5692 5694 5697 5698 5700 5701 5702 5703 5703 5704 5705 5704 5704 5704 5704
5703 5702 5700 5697 5694 5690 5687 5684 5681 5678 5675 5672 5669 5667 5664 5662 5660 5658 5657 5658 5661 5666 5670 5673 5675 5677 5679 5682 5684 5687 5689 5692 5694 5695 5697 5699 5700 5701 5702 5703 5703 5703 5703
5700 5699 5696 5693 5690 5687 5684 5681 5677 5674 5671 5668 5665 5662 5660 5658 5656 5653 5652 5651 5651 5655 5658 5663 5666 5668 5670 5673 5676 5678 5681 5684 5687 5689 5691 5693 5695 5697 5698 5700 5701 5701 5702
5698 5696 5693 5690 5687 5684 5680 5677 5673 5670 5667 5663 5661 5657 5655 5653 5650 5648 5646 5644 5643 5644 5647 5651 5655 5658 5660 5663 5666 5669 5672 5675 5678 5681 5683 5686 5689 5691 5693 5695 5697 5698 5700
5696 5693 5690 5687 5684 5680 5677 5673 5669 5666 5662 5659 5656 5652 5649 5647 5645 5643 5640 5638 5636 5636 5638 5640 5643 5648 5650 5653 5656 5658 5662 5665 5669 5671 5674 5678 5681 5684 5686 5689 5692 5695 5697
5694 5691 5687 5684 5680 5677 5673 5669 5665 5662 5658 5655 5651 5647 5644 5642 5639 5637 5634 5632 5630 5629 5629 5632 5633 5636 5639 5642 5646 5648 5652 5656 5659 5662 5666 5669 5672 5676 5679 5683 5686 5690 5693
5691 5688 5684 5680 5677 5673 5669 5665 5661 5658 5654 5650 5647 5643 5640 5637 5633 5631 5628 5626 5624 5622 5622 5625 5624 5626 5628 5631 5635 5638 5642 5646 5650 5654 5657 5661 5664 5668 5672 5676 5680 5684 5687
5688 5685 5681 5677 5673 5670 5666 5662 5658 5655 5650 5647 5643 5639 5635 5632 5629 5625 5622 5620 5618 5616 5615 5617 5617 5617 5619 5621 5624 5628 5632 5636 5640 5644 5649 5652 5656 5660 5664 5668 5673 5677 5681
5684 5681 5677 5673 5670 5666 5662 5659 5655 5651 5647 5643 5639 5635 5632 5627 5624 5620 5617 5614 5612 5611 5609 5608 5610 5610 5611 5612 5614 5618 5622 5626 5630 5635 5639 5643 5648 5652 5656 5661 5665 5670 5674
5681 5677 5674 5670 5667 5663 5659 5655 5651 5647 5643 5639 5636 5632 5628 5623 5620 5616 5613 5610 5607 5604 5602 5601 5602 5602 5602 5603 5604 5607 5612 5615 5620 5625 5629 5634 5638 5643 5648 5653 5658 5663 5667
5678 5674 5670 5666 5663 5659 5656 5652 5648 5644 5639 5635 5631 5627 5624 5620 5616 5612 5609 5606 5602 5599 5596 5595 5595 5595 5595 5595 5596 5599 5602 5605 5609 5614 5619 5624 5629 5634 5639 5644 5650 5655 5660
5674 5669 5666 5662 5659 5656 5654 5649 5645 5640 5635 5631 5627 5624 5619 5615 5613 5609 5606 5602 5598 5594 5592 5590 5589 5588 5589 5589 5589 5590 5592 5595 5599 5605 5607 5613 5618 5624 5630 5636 5642 5647 5652
5669 5665 5662 5658 5655 5653 5649 5645 5640 5636 5631 5627 5623 5619 5616 5613 5609 5605 5601 5598 5595 5591 5589 5586 5585 5585 5584 5583 5582 5583 5584 5586 5590 5594 5595 5603 5608 5614 5621 5627 5633 5638 5644
5665 5661 5658 5655 5652 5650 5646 5641 5637 5632 5628 5624 5620 5616 5611 5608 5604 5599 5596 5593 5590 5587 5585 5582 5581 5581 5579 5578 5576 5576 5577 5578 5581 5583 5585 5592 5599 5604 5611 5617 5624 5630 5635
5661 5658 5655 5651 5648 5646 5643 5638 5632 5627 5624 5621 5617 5612 5607 5603 5600 5595 5590 5587 5585 5583 5581 5578 5576 5575 5574 5572 5570 5568 5568 5569 5574 5577 5578 5582 5590 5594 5601 5609 5615 5621 5627
5658 5654 5651 5648 5645 5642 5640 5635 5629 5623 5619 5617 5613 5608 5603 5599 5596 5590 5585 5582 5580 5579 5576 5573 5571 5569 5568 5567 5565 5563 5564 5564 5567 5571 5573 5574 5581 5584 5592 5600 5606 5611 5617